Simultaneous Nadir Overpasses (SNOs) Predictions

Prediction of SNOs between METOP-A and NOAA-19 Satellite Orbit:

Table of predicted SNOs for the next 14.0 days since TLE Epoch: 2/24/2014
Index Date (METOP-A) Time (METOP-A) Lat,Lon (METOP-A) SZA (METOP-A ) Date (NOAA-19) Time (NOAA-19) Lat,Lon (NOAA-19) SZA (NOAA-19 ) Distance(km) Time Diff (sec)
1 02/26/2014 00:51:20 -74.39, -17.72 96.74 02/26/2014 00:50:11 -74.44, -20.05 96.56 69.93 69
2 02/26/2014 01:42:09 73.93, 148.49 82.85 02/26/2014 01:41:03 73.93, 148.53 82.86 1.50 66
3 02/26/2014 02:32:51 -73.92, -44.21 97.18 02/26/2014 02:32:04 -73.92, -44.19 97.17 0.88 47
4 02/26/2014 03:23:31 73.91, 123.10 82.81 02/26/2014 03:23:06 73.88, 123.13 82.78 3.41 25
5 02/26/2014 04:14:13 -73.90, -69.60 97.22 02/26/2014 04:14:07 -73.87, -69.59 97.25 3.34 6
6 02/26/2014 05:04:53 73.89, 97.70 82.76 02/26/2014 05:05:10 73.89, 97.61 82.76 3.01 17
7 02/26/2014 05:55:35 -73.88, -95.00 97.27 02/26/2014 05:56:11 -73.87, -95.11 97.27 3.71 36
8 02/26/2014 06:46:16 73.82, 72.19 82.67 02/26/2014 06:47:13 73.84, 72.21 82.68 2.56 57
9 02/26/2014 07:36:59 -73.76,-120.62 97.40 02/26/2014 07:38:13 -73.78,-120.40 97.40 7.43 74
10 03/08/2014 04:57:37 74.42, 100.77 79.39 03/08/2014 04:56:28 74.39, 98.63 79.46 64.25 69
11 03/08/2014 05:48:28 -73.98, -93.00 101.02 03/08/2014 05:47:23 -73.95, -93.00 101.04 3.92 65
12 03/08/2014 06:39:08 73.96, 74.27 78.95 03/08/2014 06:38:23 73.95, 74.24 78.96 0.84 45
13 03/08/2014 07:29:51 -73.91,-118.52 101.11 03/08/2014 07:29:26 -73.90,-118.40 101.12 3.64 25
14 03/08/2014 08:20:30 73.93, 48.87 78.90 03/08/2014 08:20:26 73.91, 48.83 78.88 2.76 4
15 03/08/2014 09:11:13 -73.89,-143.91 101.16 03/08/2014 09:11:30 -73.91,-143.93 101.14 2.05 17
16 03/08/2014 10:01:53 73.86, 23.36 78.81 03/08/2014 10:02:29 73.87, 23.43 78.80 2.37 36
17 03/08/2014 10:52:35 -73.87,-169.30 101.21 03/08/2014 10:53:33 -73.86,-169.33 101.22 0.89 58
18 03/08/2014 11:43:18 73.69, -2.39 78.63 03/08/2014 11:44:30 73.72, -1.73 78.62 20.88 72




NCC Satellite Simultaneous Nadir Overpasses (SNOs) Prediction Service
